Showing default

PADRE, 64559

Orbit data source: Space-Track

PADRE, 64559 is a Bulgarian payload satellite in SSO that was launched on Mon, 23 Jun 2025 UTC via an FALCON 9 launch vehicle from the Air Force Western Test Range (AFWTR). Payload-class satellites include a variety of spacecraft equipped with specific instruments for various scientific and technological missions. These include communications satellites like Starlink; space stations such as the ISS; scientific satellites like the Hubble; Earth observation satellites from companies like Planet Labs, Umbra, and HawkEye 360; GPS; miniature CubeSats for education and research; and military/defense satellites.

Loading next visibility...
Identifier
64559, 2025-135AH
Orbit
SSO
Country
Flag of BGBG / BGR
Related business
Manufacturer
Endurosat
Mission
Operational Amateur Astronomy
Bus & Motor
CUBESAT 12U, Unknown motor
Mass
~20 kg wet, ~20 kg dry
Launch date (UTC)
2025-06-23 (8 months ago)
Launch vehicle
FALCON 9
Launch site
Air Force Western Test Range (AFWTR)
Object type
Payload
Rocket body
Debris
Shape & HBR
Box + 4 Pan, 0.3 m
Radar Cross Section
0.127 m², Small (<0.1 m²)

Expand to show TLE details & history
Last TLE update: 12 hours ago

TLE from 12 hours ago
0 PADRE
1 64559U 25135AH  26062.27034814  .00003384  00000-0  33867-3 0  9998
2 64559  97.7594 177.4223 0000818 205.5330 154.5849 14.92075267 38058
Epoch: 2026-03-03T06:29Z
TLE epoch observation values (Epoch: 2026-03-03T06:29:18.079Z)
Latitude
0.00002°
Longitude
-80.95485°
Altitude
595.023 km
Speed
7.562 km/s
True Right ascension
11h 49m 41s
True Declination
0° 00' 00"
Sunlit
Object was in full shadow at epoch
Visualization orbit readout
Latitude
Unknown
Longitude
Unknown
Altitude
Unknown
Speed
Unknown
Apparent Right ascension
Unknown
Apparent Declination
Unknown
Sunlit
N/A
Visualization observer readout
Local Sidereal Time
21:49:03
Azimuth
Unknown
Elevation
Unknown
Doppler factor
Unknown
Orbital elements
Apogee altitude
589.054 km
Perigee altitude
587.914 km
Semi-major axis
6,966.621 km
Eccentricity
0.00008
Inclination
97.7594°
RAAN
177.4223°
Arg. of periapsis
205.533°
True anomaly
154.58892°
Mean anomaly
154.5849°
Eccentric anomaly
154.58691°
Mean motion
3.73259 °/min
Orbital period
96.45 mins
BSTAR
0.00033867
Loading maneuver chart data...
Computing Atmospheric mass density...
Loading historical data...
Loading historical data...
Loading historical data...
Loading historical data...
Loading historical data...
Loading historical data...
Loading historical data...

Documentation

Showing up to 5 results
|